DLH401A KJFK-EDDF

Flight info

Callsign DLH401A
Flight time N/A
Altitude 37000
Route MERIT DCT HFD DCT PUT DCT TOPPS N683B NEEKO/M085F380 DCT 54N050W 55N040W 55N030W 54N020W DCT MALOT DCT GISTI/N0493F390 DCT ENJEX DCT ADHAV DCT AXNEF DCT ZIPWE DCT OZZIL DCT SAWPE Q63 CPT UL9 BIG L607 KONAN DCT KOK UL607 FERDI DCT REMBA DCT SPI T180 NIVNU T847 IMCOM IMCOM1D
Aircraft A388/J-SADE2E3FGHIJ3J4J5M1RWXY/LB1D1

Departure

Time 2026-05-01 13:49
Airport John F. Kennedy International Airport (KJFK)

Arrival

Time N/A
Airport Frankfurt Main Airport (EDDF)
Time Latitude Longitude Altitude Speed Heading
2026-05-01 13:19 40.64227 -73.79266 36 ft 0 kts 151°
2026-05-01 13:37 40.64237 -73.79273 32 ft 4 kts 150°
2026-05-01 13:37 40.64263 -73.79291 30 ft 4 kts 159°
2026-05-01 13:37 40.64288 -73.79300 32 ft 4 kts 171°
2026-05-01 13:38 40.64318 -73.79305 31 ft 4 kts 185°
2026-05-01 13:38 40.64303 -73.79318 32 ft 4 kts 221°
2026-05-01 13:38 40.64287 -73.79339 33 ft 4 kts 224°
2026-05-01 13:39 40.64267 -73.79363 33 ft 4 kts 223°
2026-05-01 13:39 40.64250 -73.79385 33 ft 1 kts 227°
2026-05-01 13:39 40.64250 -73.79386 33 ft 0 kts 227°
2026-05-01 13:42 40.64246 -73.79391 33 ft 0 kts 228°
2026-05-01 13:42 40.64231 -73.79417 33 ft 11 kts 237°
2026-05-01 13:43 40.64188 -73.79499 33 ft 10 kts 196°
2026-05-01 13:43 40.64106 -73.79506 31 ft 14 kts 187°
2026-05-01 13:43 40.64006 -73.79505 31 ft 14 kts 164°
2026-05-01 13:43 40.63937 -73.79407 30 ft 16 kts 120°
2026-05-01 13:44 40.63875 -73.79270 29 ft 18 kts 121°
2026-05-01 13:44 40.63808 -73.79125 31 ft 19 kts 121°
2026-05-01 13:44 40.63738 -73.78967 31 ft 21 kts 120°
2026-05-01 13:44 40.63664 -73.78806 35 ft 21 kts 121°
2026-05-01 13:45 40.63585 -73.78634 35 ft 23 kts 121°
2026-05-01 13:45 40.63501 -73.78450 35 ft 25 kts 120°
2026-05-01 13:45 40.63411 -73.78246 34 ft 26 kts 120°
2026-05-01 13:45 40.63329 -73.78027 33 ft 26 kts 100°
2026-05-01 13:46 40.63312 -73.77812 35 ft 24 kts 120°
2026-05-01 13:46 40.63225 -73.77622 37 ft 24 kts 123°
2026-05-01 13:46 40.63135 -73.77430 37 ft 25 kts 122°
2026-05-01 13:46 40.63042 -73.77224 35 ft 27 kts 120°
2026-05-01 13:47 40.62958 -73.77111 32 ft 16 kts 178°
2026-05-01 13:47 40.62855 -73.77160 32 ft 16 kts 210°
2026-05-01 13:47 40.62841 -73.77262 32 ft 13 kts 296°
2026-05-01 13:47 40.62862 -73.77314 34 ft 0 kts 301°
2026-05-01 13:48 40.62880 -73.77354 35 ft 16 kts 301°
2026-05-01 13:48 40.63038 -73.77703 39 ft 73 kts 301°
2026-05-01 13:48 40.63395 -73.78491 29 ft 125 kts 301°
2026-05-01 13:49 40.63921 -73.79652 30 ft 168 kts 301°
2026-05-01 13:49 40.64549 -73.81051 383 ft 179 kts 302°
2026-05-01 13:49 40.65181 -73.82462 1036 ft 179 kts 303°
2026-05-01 13:49 40.65814 -73.83878 1642 ft 180 kts 302°
2026-05-01 13:50 40.66514 -73.85229 2220 ft 178 kts 319°
2026-05-01 13:50 40.67575 -73.85972 2754 ft 172 kts 351°
2026-05-01 13:50 40.68738 -73.85836 3221 ft 173 kts 22°
2026-05-01 13:50 40.69710 -73.84882 3683 ft 175 kts 43°
2026-05-01 13:51 40.70534 -73.83707 4142 ft 175 kts 39°
2026-05-01 13:51 40.71494 -73.82706 4501 ft 180 kts 30°
2026-05-01 13:51 40.72572 -73.81739 4790 ft 194 kts 31°
2026-05-01 13:51 40.73715 -73.80679 5079 ft 208 kts 32°
2026-05-01 13:52 40.74929 -73.79504 5396 ft 223 kts 32°
2026-05-01 13:52 40.76220 -73.78225 5679 ft 240 kts 33°
2026-05-01 13:52 40.77599 -73.76837 6002 ft 258 kts 33°
2026-05-01 13:52 40.79041 -73.75368 6431 ft 271 kts 33°
2026-05-01 13:53 40.80562 -73.73803 7110 ft 274 kts 33°
2026-05-01 13:53 40.83550 -73.70710 8646 ft 276 kts 32°
2026-05-01 13:53 40.85071 -73.69138 9382 ft 279 kts 31°
2026-05-01 13:54 40.86604 -73.67554 10091 ft 281 kts 31°
2026-05-01 13:54 40.88169 -73.65947 10576 ft 291 kts 31°
2026-05-01 13:54 40.89817 -73.64262 10874 ft 308 kts 31°
2026-05-01 13:54 40.91555 -73.62478 11168 ft 324 kts 32°
2026-05-01 13:55 40.93375 -73.60601 11463 ft 340 kts 32°
2026-05-01 13:55 40.95285 -73.58624 11758 ft 356 kts 32°
2026-05-01 13:55 40.97278 -73.56558 12035 ft 372 kts 33°
2026-05-01 13:55 40.99360 -73.54397 12332 ft 387 kts 33°
2026-05-01 13:56 41.01508 -73.52164 12775 ft 397 kts 33°
2026-05-01 13:56 41.03696 -73.49885 13378 ft 403 kts 33°
2026-05-01 13:56 41.05919 -73.47567 13925 ft 409 kts 33°
2026-05-01 13:56 41.08174 -73.45214 14463 ft 415 kts 33°
2026-05-01 13:57 41.10457 -73.42830 15038 ft 419 kts 33°
2026-05-01 13:57 41.12772 -73.40411 15633 ft 422 kts 33°
2026-05-01 13:57 41.15087 -73.37992 16221 ft 425 kts 33°
2026-05-01 13:57 41.17397 -73.35578 16786 ft 429 kts 33°
2026-05-01 13:58 41.19761 -73.33108 17397 ft 432 kts 34°
2026-05-01 13:58 41.22139 -73.30620 17997 ft 435 kts 34°
2026-05-01 13:58 41.24525 -73.28117 18513 ft 438 kts 34°
2026-05-01 13:58 41.26934 -73.25589 18977 ft 443 kts 33°
2026-05-01 13:59 41.29339 -73.23064 19429 ft 447 kts 33°
2026-05-01 13:59 41.31807 -73.20470 19881 ft 450 kts 33°
2026-05-01 13:59 41.34257 -73.17893 20344 ft 454 kts 33°
2026-05-01 13:59 41.36679 -73.15123 20818 ft 462 kts 40°
2026-05-01 14:00 41.38845 -73.11917 21315 ft 468 kts 49°
2026-05-01 14:00 41.40711 -73.08288 21781 ft 474 kts 56°
2026-05-01 14:00 41.42388 -73.04532 22245 ft 478 kts 57°
2026-05-01 14:00 41.44065 -73.00652 22645 ft 483 kts 58°
2026-05-01 14:01 41.45751 -72.96743 23069 ft 487 kts 57°
2026-05-01 14:01 41.47460 -72.92813 23483 ft 490 kts 57°
2026-05-01 14:01 41.49160 -72.88923 23838 ft 493 kts 57°
2026-05-01 14:01 41.50903 -72.84945 24204 ft 496 kts 57°
2026-05-01 14:02 41.52656 -72.80944 24561 ft 499 kts 57°
2026-05-01 14:02 41.54421 -72.76917 24919 ft 502 kts 57°
2026-05-01 14:02 41.56192 -72.72874 25269 ft 505 kts 57°
2026-05-01 14:02 41.57972 -72.68805 25619 ft 508 kts 57°
2026-05-01 14:03 41.59745 -72.64746 25975 ft 511 kts 57°
2026-05-01 14:03 41.61540 -72.60633 26318 ft 514 kts 57°
2026-05-01 14:03 41.63351 -72.56475 26641 ft 517 kts 57°
2026-05-01 14:03 41.65183 -72.52303 26967 ft 520 kts 57°
2026-05-01 14:04 41.67046 -72.48157 27309 ft 522 kts 56°
2026-05-01 14:04 41.68939 -72.43982 27661 ft 524 kts 56°
2026-05-01 14:04 41.70840 -72.39781 28016 ft 527 kts 56°
2026-05-01 14:04 41.72098 -72.36995 28218 ft 528 kts 56°
2026-05-01 14:05 41.74622 -72.31385 28831 ft 528 kts 56°
2026-05-01 14:05 41.76511 -72.27173 29342 ft 527 kts 56°
2026-05-01 14:05 41.78405 -72.22946 29804 ft 526 kts 57°
2026-05-01 14:05 41.80293 -72.18729 30231 ft 526 kts 57°
2026-05-01 14:06 41.82172 -72.14523 30625 ft 526 kts 57°
2026-05-01 14:06 41.84054 -72.10309 31007 ft 525 kts 57°
2026-05-01 14:06 41.85907 -72.06146 31370 ft 525 kts 57°
2026-05-01 14:06 41.87775 -72.01943 31728 ft 524 kts 57°
2026-05-01 14:07 41.89639 -71.97739 32072 ft 524 kts 57°
2026-05-01 14:07 41.91549 -71.93557 32410 ft 524 kts 55°
2026-05-01 14:07 41.93610 -71.89524 32708 ft 523 kts 52°
2026-05-01 14:08 41.98243 -71.81997 33411 ft 520 kts 44°
2026-05-01 14:08 42.00792 -71.78546 33675 ft 521 kts 41°
2026-05-01 14:08 42.03498 -71.75288 33893 ft 521 kts 38°
2026-05-01 14:08 42.06254 -71.72164 34100 ft 523 kts 37°
2026-05-01 14:09 42.09059 -71.69030 34317 ft 523 kts 37°
2026-05-01 14:09 42.11883 -71.65874 34547 ft 524 kts 37°
2026-05-01 14:09 42.14692 -71.62722 34776 ft 525 kts 37°
2026-05-01 14:09 42.17500 -71.59559 34919 ft 527 kts 37°
2026-05-01 14:10 42.20313 -71.56378 34913 ft 528 kts 37°
2026-05-01 14:10 42.25899 -71.50035 34908 ft 528 kts 38°
2026-05-01 14:11 42.31523 -71.43630 34941 ft 528 kts 38°
2026-05-01 14:11 42.39939 -71.34016 34928 ft 528 kts 38°
2026-05-01 14:12 42.45552 -71.27581 34923 ft 528 kts 38°
2026-05-01 14:12 42.51153 -71.21149 34914 ft 527 kts 38°
2026-05-01 14:13 42.55801 -71.15796 34925 ft 527 kts 38°
2026-05-01 14:13 42.62301 -71.08292 34916 ft 527 kts 38°
2026-05-01 14:14 42.67902 -71.01814 34922 ft 527 kts 39°
2026-05-01 14:14 42.73480 -70.95341 34916 ft 527 kts 39°
2026-05-01 14:15 42.79063 -70.88847 34905 ft 527 kts 39°
2026-05-01 14:15 42.84638 -70.82356 34885 ft 527 kts 39°
2026-05-01 14:16 42.90205 -70.75846 34866 ft 527 kts 39°
2026-05-01 14:16 42.95773 -70.69319 34867 ft 527 kts 39°
2026-05-01 14:17 43.01333 -70.62794 34873 ft 527 kts 40°
2026-05-01 14:17 43.06884 -70.56256 34870 ft 527 kts 40°
2026-05-01 14:18 43.12404 -70.49739 34854 ft 527 kts 40°
2026-05-01 14:18 43.17021 -70.44277 34863 ft 527 kts 40°
2026-05-01 14:19 43.23506 -70.36586 34866 ft 526 kts 40°
2026-05-01 14:19 43.29048 -70.29998 34870 ft 526 kts 40°
2026-05-01 14:20 43.37343 -70.20104 34863 ft 526 kts 40°
2026-05-01 14:21 43.42868 -70.13490 34860 ft 526 kts 40°
2026-05-01 14:21 43.48384 -70.06879 34860 ft 525 kts 41°
2026-05-01 14:22 43.56606 -69.96981 34836 ft 524 kts 41°
2026-05-01 14:22 43.62105 -69.90347 34859 ft 523 kts 41°
2026-05-01 14:23 43.67585 -69.83715 34864 ft 522 kts 41°
2026-05-01 14:23 43.73043 -69.77089 34866 ft 522 kts 41°
2026-05-01 14:24 43.78473 -69.70488 34848 ft 520 kts 41°
2026-05-01 14:24 43.83908 -69.63859 34864 ft 520 kts 42°
2026-05-01 14:25 43.89335 -69.57221 34867 ft 520 kts 42°
2026-05-01 14:25 43.94761 -69.50580 34848 ft 518 kts 42°
2026-05-01 14:26 44.02854 -69.40624 34851 ft 518 kts 43°
2026-05-01 14:27 44.08216 -69.34011 34826 ft 517 kts 43°
2026-05-01 14:27 44.13593 -69.27366 34823 ft 516 kts 43°
2026-05-01 14:28 44.21641 -69.17377 34837 ft 516 kts 43°
2026-05-01 14:28 44.26103 -69.11830 34829 ft 516 kts 43°
2026-05-01 14:29 44.31463 -69.05144 34815 ft 516 kts 44°
2026-05-01 14:30 44.42171 -68.91745 34801 ft 517 kts 44°
2026-05-01 14:31 44.50209 -68.81632 34811 ft 517 kts 44°
2026-05-01 14:31 44.55557 -68.74883 34804 ft 517 kts 44°
2026-05-01 14:32 44.60904 -68.68128 34811 ft 517 kts 45°
2026-05-01 14:32 44.66243 -68.61354 34805 ft 516 kts 45°
2026-05-01 14:33 44.71568 -68.54580 34809 ft 516 kts 45°
2026-05-01 14:33 44.76905 -68.47778 34801 ft 516 kts 45°
2026-05-01 14:34 44.82227 -68.40977 34796 ft 516 kts 45°
2026-05-01 14:34 44.87547 -68.34160 34792 ft 516 kts 45°
2026-05-01 14:35 44.92830 -68.27382 34788 ft 516 kts 45°
2026-05-01 14:35 44.98142 -68.20535 34783 ft 516 kts 45°
2026-05-01 14:36 45.03445 -68.13685 34780 ft 516 kts 45°
2026-05-01 14:36 45.08750 -68.06820 34776 ft 516 kts 46°
2026-05-01 14:37 45.14045 -67.99944 34777 ft 516 kts 46°
2026-05-01 14:37 45.19312 -67.93088 34777 ft 516 kts 46°
2026-05-01 14:38 45.24609 -67.86185 34752 ft 517 kts 46°
2026-05-01 14:38 45.29903 -67.79252 34769 ft 517 kts 46°
2026-05-01 14:39 45.35183 -67.72305 34749 ft 517 kts 47°
2026-05-01 14:39 45.40384 -67.65261 34759 ft 516 kts 48°
2026-05-01 14:40 45.45579 -67.58166 34759 ft 515 kts 48°
2026-05-01 14:40 45.50725 -67.51131 34754 ft 515 kts 48°
2026-05-01 14:41 45.55908 -67.44041 34742 ft 515 kts 48°
2026-05-01 14:41 45.61082 -67.36943 34740 ft 515 kts 48°
2026-05-01 14:42 45.66248 -67.29838 34743 ft 515 kts 48°
2026-05-01 14:42 45.71413 -67.22717 34729 ft 515 kts 49°
2026-05-01 14:43 45.76564 -67.15597 34731 ft 515 kts 49°
2026-05-01 14:43 45.81717 -67.08452 34737 ft 515 kts 49°
2026-05-01 14:44 45.86870 -67.01288 34718 ft 515 kts 49°
2026-05-01 14:44 45.94585 -66.90530 34729 ft 515 kts 49°
2026-05-01 14:45 46.02256 -66.79786 34706 ft 516 kts 49°
2026-05-01 14:46 46.07420 -66.72541 34721 ft 519 kts 50°
2026-05-01 14:46 46.15170 -66.61601 34731 ft 519 kts 50°
2026-05-01 14:47 46.20329 -66.54299 34727 ft 520 kts 50°
2026-05-01 14:48 46.28078 -66.43297 34738 ft 520 kts 51°
2026-05-01 14:48 46.35828 -66.32243 34744 ft 520 kts 51°
2026-05-01 14:49 46.46101 -66.17520 34746 ft 520 kts 51°
2026-05-01 14:50 46.56387 -66.02703 34741 ft 521 kts 51°
2026-05-01 14:51 46.64095 -65.91536 34751 ft 521 kts 51°
2026-05-01 14:52 46.71764 -65.80384 34743 ft 521 kts 51°
2026-05-01 14:53 46.79456 -65.69147 34759 ft 521 kts 52°
2026-05-01 14:53 46.84561 -65.61660 34747 ft 519 kts 51°
2026-05-01 14:54 46.89633 -65.54199 34759 ft 520 kts 51°
2026-05-01 14:54 46.94735 -65.46680 34771 ft 520 kts 51°
2026-05-01 14:55 46.99833 -65.39145 34780 ft 520 kts 51°
2026-05-01 14:55 47.04910 -65.31615 34771 ft 520 kts 51°
2026-05-01 14:56 47.09993 -65.24055 34780 ft 520 kts 51°
2026-05-01 14:56 47.15068 -65.16490 34781 ft 519 kts 51°
2026-05-01 14:57 47.20140 -65.08906 34759 ft 519 kts 51°
2026-05-01 14:57 47.27733 -64.97503 34783 ft 520 kts 51°
2026-05-01 14:58 47.32797 -64.89878 34794 ft 520 kts 51°
2026-05-01 14:58 47.37825 -64.82279 34779 ft 520 kts 51°
2026-05-01 14:59 47.42896 -64.74585 34799 ft 523 kts 50°
2026-05-01 14:59 47.47975 -64.66874 34807 ft 523 kts 51°
2026-05-01 15:00 47.55573 -64.55279 34818 ft 524 kts 50°
2026-05-01 15:01 47.60655 -64.47495 34816 ft 525 kts 50°
2026-05-01 15:01 47.65697 -64.39748 34828 ft 523 kts 49°
2026-05-01 15:02 47.70766 -64.31958 34828 ft 523 kts 49°
2026-05-01 15:02 47.75806 -64.24175 34840 ft 522 kts 49°
2026-05-01 15:03 47.80837 -64.16385 34856 ft 522 kts 49°
2026-05-01 15:03 47.85866 -64.08572 34857 ft 522 kts 49°
2026-05-01 15:04 47.90877 -64.00760 34860 ft 520 kts 49°
2026-05-01 15:04 47.95865 -63.92963 34869 ft 519 kts 49°
2026-05-01 15:05 48.00845 -63.85155 34869 ft 519 kts 49°
2026-05-01 15:05 48.05827 -63.77319 34883 ft 519 kts 50°
2026-05-01 15:06 48.10804 -63.69467 34900 ft 519 kts 50°
2026-05-01 15:06 48.15742 -63.61654 34900 ft 519 kts 50°
2026-05-01 15:07 48.20707 -63.53775 34903 ft 519 kts 50°
2026-05-01 15:07 48.25664 -63.45880 34906 ft 520 kts 50°
2026-05-01 15:08 48.30616 -63.37975 34917 ft 520 kts 50°
2026-05-01 15:08 48.35577 -63.30031 34924 ft 519 kts 50°
2026-05-01 15:09 48.40499 -63.22122 34918 ft 522 kts 50°
2026-05-01 15:09 48.45473 -63.14090 34932 ft 524 kts 49°
2026-05-01 15:10 48.50461 -63.06034 34953 ft 524 kts 49°
2026-05-01 15:10 48.57917 -62.93941 34962 ft 525 kts 49°
2026-05-01 15:11 48.65381 -62.81778 34974 ft 525 kts 49°
2026-05-01 15:12 48.70351 -62.73648 34986 ft 525 kts 49°
2026-05-01 15:12 48.77750 -62.61488 34993 ft 525 kts 49°
2026-05-01 15:14 48.90110 -62.41058 35010 ft 524 kts 49°
2026-05-01 15:14 48.97443 -62.28853 35033 ft 522 kts 49°
2026-05-01 15:15 49.07230 -62.12485 35034 ft 522 kts 49°
2026-05-01 15:16 49.16962 -61.96103 35063 ft 519 kts 49°
2026-05-01 15:18 49.29020 -61.75655 35073 ft 515 kts 49°
2026-05-01 15:19 49.37798 -61.60675 35089 ft 515 kts 49°
2026-05-01 15:19 49.44961 -61.48373 35093 ft 512 kts 48°
2026-05-01 15:20 49.52078 -61.36110 35094 ft 512 kts 48°
2026-05-01 15:21 49.56817 -61.27910 35096 ft 512 kts 49°
2026-05-01 15:21 49.61539 -61.19705 35105 ft 508 kts 48°
2026-05-01 15:22 49.68570 -61.07452 35115 ft 508 kts 48°
2026-05-01 15:22 49.73249 -60.99264 35122 ft 508 kts 49°
2026-05-01 15:23 49.77894 -60.91112 35121 ft 508 kts 49°
2026-05-01 15:23 49.82564 -60.82885 35132 ft 508 kts 49°
2026-05-01 15:24 49.87228 -60.74645 35135 ft 508 kts 49°
2026-05-01 15:24 49.91892 -60.66376 35130 ft 508 kts 49°
2026-05-01 15:25 49.96520 -60.58144 35138 ft 504 kts 49°
2026-05-01 15:25 50.01123 -60.49935 35149 ft 503 kts 49°
2026-05-01 15:26 50.05721 -60.41707 35132 ft 503 kts 49°
2026-05-01 15:26 50.10271 -60.33537 35164 ft 501 kts 49°
2026-05-01 15:27 50.14824 -60.25350 35177 ft 498 kts 49°
2026-05-01 15:28 50.21623 -60.13051 35180 ft 498 kts 49°
2026-05-01 15:28 50.26147 -60.04835 35180 ft 498 kts 49°
2026-05-01 15:29 50.32920 -59.92509 35188 ft 496 kts 50°
2026-05-01 15:30 50.41869 -59.76095 35212 ft 496 kts 50°
2026-05-01 15:31 50.55251 -59.51375 35219 ft 495 kts 51°
2026-05-01 15:32 50.64142 -59.34822 35221 ft 495 kts 51°
2026-05-01 15:34 50.77441 -59.09852 35225 ft 494 kts 52°